User: anonymous   Login
Location: Unspecified
(0.0000°N, 0.0000°E)
Time: 05:48:06
(UTC+00:00)
Language:

ONEWEB-0358 - Orbit

View from above orbital plane
View from above orbital plane
View from above satellite
View from above satellite

Ground track
Ground track

The orbit is defined by the following mean orbital elements,

1 49284U          26145.37717995 +.00000000 +00000-0 +13827-3 0 00000
2 49284  87.9177 278.9856 0002052 101.8774 258.2590 13.20769556    05
Epoch (UTC): 25 May 2026 09:03:08
Eccentricity: 0.0002052
inclination: 87.9177°
perigee height: 1180 km
apogee height: 1183 km
right ascension of ascending node: 278.9856°
argument of perigee: 101.8774°
revolutions per day: 13.20769556
mean anomaly at epoch: 258.2590°

The dashed part of the orbit path shows where the satellite is in the earth's shadow,  

DLR